This is the latest recevied weather packets stored in our database for station/object KD8UTJ. If no packets are shown the sender has not sent any weather packets the latest 10 day(s).
| Time | Temp. | Humidity | Pressure | Rain* | Wind** | Luminosity | Snow |
|---|---|---|---|---|---|---|---|
| 1778178295 | 32.22° C | 54% | 1016.6 hPa | 0 mm | - | 789 W/m² | - |
| 1778177991 | 32.22° C | 53% | 1016.9 hPa | 0 mm | - | 796 W/m² | - |
| 1778177688 | 32.22° C | 53% | 1016.8 hPa | 0 mm | - | 803 W/m² | - |
| 1778177384 | 32.22° C | 56% | 1016.7 hPa | 0 mm | - | 808 W/m² | - |
| 1778177081 | 32.22° C | 55% | 1017 hPa | 0 mm | - | 824 W/m² | - |
| 1778176777 | 32.22° C | 56% | 1016.9 hPa | 0 mm | - | 840 W/m² | - |
| 1778176474 | 31.67° C | 58% | 1017 hPa | 0 mm | - | 829 W/m² | - |
| 1778176172 | 31.67° C | 57% | 1017.2 hPa | 0 mm | - | 836 W/m² | - |
| 1778175869 | 31.67° C | 58% | 1017.2 hPa | 0 mm | - | 374 W/m² | - |
| 1778175566 | 31.11° C | 60% | 1017.3 hPa | 0 mm | - | 857 W/m² | - |
| 1778175263 | 31.11° C | 59% | 1017.2 hPa | 0 mm | - | 950 W/m² | - |
| 1778174960 | 31.11° C | 57% | 1017 hPa | 0 mm | - | 844 W/m² | - |
| 1778174657 | 31.11° C | 59% | 1017.1 hPa | 0 mm | - | 832 W/m² | - |
| 1778174353 | 31.11° C | 58% | 1017.1 hPa | 0 mm | - | 855 W/m² | - |
| 1778174049 | 30.56° C | 61% | 1017.2 hPa | 0 mm | - | 843 W/m² | - |
| 1778173746 | 31.11° C | 60% | 1017.2 hPa | 0 mm | - | 493 W/m² | - |
| 1778173443 | 30.56° C | 62% | 1017 hPa | 0 mm | - | 803 W/m² | - |
| 1778173139 | 30° C | 62% | 1017.3 hPa | 0 mm | - | 821 W/m² | - |
| 1778172835 | 30° C | 62% | 1017.2 hPa | 0 mm | - | 849 W/m² | - |
| 1778172531 | 30° C | 63% | 1017.3 hPa | 0 mm | - | 825 W/m² | - |
| 1778172228 | 30.56° C | 63% | 1017.5 hPa | 0 mm | - | 815 W/m² | - |
| 1778171926 | 30° C | 64% | 1017.4 hPa | 0 mm | - | 817 W/m² | - |
| 1778171623 | 30.56° C | 63% | 1017.7 hPa | 0 mm | - | 805 W/m² | - |
| 1778171319 | 30° C | 64% | 1017.5 hPa | 0 mm | - | 800 W/m² | - |
| 1778171015 | 29.44° C | 66% | 1017.5 hPa | 0 mm | - | 797 W/m² | - |
* Rain latest hour (hover to see other rain measurements)
** Current wind speed in m/s (hover to see current wind gust speed)